Regional Weather Roundup
Issued by NWS Portland, ME

Home | Current Version | Previous Version | Text Only | Print | Product List | Glossary On
Versions: 1 2 3 4 5 6 7 8 9 10 11 12 13 14 15 16 17 18 19 20 21 22 23 24 25 26 27 28 29 30 31 32 33 34 35 36 37 38 39 40 41 42 43 44 45 46 47 48 49 50
000
ASUS41 KGYX 210110
RWRGYX
WEATHER ROUNDUP FOR MAINE AND NEW HAMPSHIRE
NATIONAL WEATHER SERVICE GRAY ME
800 PM EST MON FEB 20 2017

MEZ002-005-006-010-012-015-018-020-021-024-026-027-029-210200-
MAINE

CITY           SKY/WX    TMP DP  RH WIND       PRES   REMARKS
PORTLAND       CLEAR     34  14  43 N12       30.31R
SANFORD        CLEAR     32  15  49 N8        30.31R
BAR HARBOR     CLEAR     32  15  49 N6        30.26R
WISCASSET      CLEAR     36  13  38 VRB3      30.31R
ROCKLAND       CLEAR     36  14  41 VRB3      30.28R
FRYEBURG       CLEAR     31  10  41 N6        30.32R
LEWISTONAUBURN CLEAR     31  16  54 NW6       30.31R
AUGUSTA        CLEAR     32  12  43 N10       30.29R
WATERVILLE     CLEAR     32  15  49 N7        30.26R
BANGOR         CLEAR     25  13  60 NW8       30.28R
GREENVILLE       N/A     25  13  60 NW14G22   30.22R WCI  13
MILLINOCKET    CLEAR     20  12  71 NE6       30.29R
HOULTON        CLEAR     25   8  48 N10       30.26R WCI  15
PRESQUE ISLE   PTCLDY    19   7  59 N3        30.31R
FRENCHVILLE    CLEAR     19   3  49 NW9       30.27R
CARIBOU        PTCLDY    20   5  52 N10       30.29R WCI   9
$$

NHZ002-005-008-009-011-012-014-210200-
NEW HAMPSHIRE

CITY           SKY/WX    TMP DP  RH WIND       PRES   REMARKS
PORTSMOUTH     CLEAR     34  12  40 NW5       30.30R
ROCHESTER      CLEAR     33  12  41 NW7       30.30R
NASHUA         CLEAR     31  18  58 NW5       30.32R
MANCHESTER     CLEAR     34  13  41 N7        30.30R
CONCORD        CLEAR     27  15  61 SE3       30.32R
LACONIA        CLEAR     27  15  61 MISG      30.31R
PLYMOUTH       FAIR      31  13  48 W5        30.32R
BERLIN         CLEAR     21   9  59 SE6       30.31R
WHITEFIELD     CLEAR     27  11  51 N7        30.31S
JAFFREY        CLEAR     24  14  65 CALM      30.30R
KEENE          CLEAR     28  18  66 CALM      30.34R
LEBANON        CLEAR     26  15  63 CALM      30.34R
MT WASHINGTON  CLEAR     10   5  79 NE41        N/A  WCI -15
$$

VTZ005-007-008-210200-
VERMONT

CITY           SKY/WX    TMP DP  RH WIND       PRES   REMARKS
ST JOHNSBURY     N/A     27  14  58 MISG      30.33R
MONTPELIER     CLEAR     24  13  62 NW3       30.37R
BURLINGTON     CLEAR     27  16  63 CALM      30.40R
$$

MAZ007-012-024-CTZ003-RIZ002-NYZ038-NYZ072-210200-
SOUTHERN NEW ENGLAND AND NY

CITY           SKY/WX    TMP DP  RH WIND       PRES   REMARKS
BOSTON         CLEAR     38  15  39 N9        30.31R
WORCESTER      CLEAR     33  10  38 NW9       30.28R
NANTUCKET      CLEAR     35  26  69 N9        30.27S
PROVIDENCE     CLEAR     38  14  37 N9        30.31R
HARTFORD       CLEAR     35  11  36 NW8       30.34R
ALBANY         PTCLDY    33  13  43 N6        30.39R
NEW YORK CITY  PTCLDY    46  12  25 NE13      30.31R
$$

ANZ081-ANZ082-ANZ150-NHZ014-MEZ023>029-210200-
COASTAL MARINE OBSERVATIONS

STATION/POSITION TIME  TEMP    WIND        PRES    WAVE
                       AIR SEA DIR/SP/G            HT/PER
                 (UTC) (F)     (DEG/KT/KT) (MB)    (FT/S)
MOUNT DESERT ROC 0100   37                 1024.1R
MATINICUS ROCK   0000   38     360/ 16/ 17 1023.4R
ISLE OF SHOALS   0000   39     330/ 13/ 13 1025.2R
JEFFREYS LEDGE   0006      43                N/A     4/ 5
CASHES LEDGE BUO 0050   40 42              1024.2R   5/ 5
GEORGES BANK BUO 2350   39 42              1019.5    9/ 8
$$

.............KEY..............
   WCI - WIND CHILL
   TC  - TEMPERATURE IN CELSIUS
   VSB - VISIBILITY IN MILES
   HX  - HEAT INDEX
   FAIR- INDICATES FEW OR NO CLOUDS BELOW 12,000 FT, WITH NO
         SIGNIFICANT WEATHER AND/OR OBSTRUCTIONS TO VISIBILITY.






USA.gov is the U.S. government's official web portal to all federal, state and local government web resources and services.